Location: Endfield
(51.6667°N, 0.0667°W)
Time: 21:43:34
(UTC+00:00)

Cosmos 1743 - Pass Details

Date: 19 May 2024
Orbit: 474 x 489 km, 82.5° (Epoch: 14 June)

Event Time Altitude Azimuth Distance (km) Brightness Sun altitude
Rises 20:33:09 0° 355° (N) 2,544 7.0 -5.7°
Reaches altitude 10° 20:35:23 10° 5° (N) 1,659 5.9 -5.9°
Maximum altitude 20:38:44 35° 73° (ENE) 783 3.4 -6.3°
Drops below altitude 10° 20:42:04 10° 141° (SE) 1,643 4.6 -6.7°
Enters shadow 20:42:22 - 143° (SE) 1,758 4.7 -6.7°
